Voltar ao catálogo

STARLINK-35821

AtivoComunicaçõesVLEO
NORAD 66372·PAYLOAD·🇺🇸 United States

Lançado Nov 6, 2025 de Vandenberg Space Force Base

Loading…

Próximas Passagens (próximas 24 horas)

TLE

AtualizadoSource: CelesTrak SupGP

Época: Sep 15, 2026, 03:40 UTC

1 66372C 25254AA  26258.15326389 -.00025957  00000+0 -76702-3 0  2584
2 66372  53.1580  68.4295 0001206  91.8927  97.2531 15.34399277    15

Acompanhe STARLINK-35821 em tempo real com AllMySat

Download on the App Store